STARLINK-35385, 65906

Orbit data source: Space-Track

STARLINK-35385, 65906 is a payload satellite owned by SpaceX/Seattle (US) in LEO that was launched on Tue, 07 Oct 2025 UTC via an FALCON 9 launch vehicle from the Air Force Eastern Test Range (AFETR). Payload-class satellites include a variety of spacecraft equipped with specific instruments for various scientific and technological missions. These include communications satellites like Starlink; space stations such as the ISS; scientific satellites like the Hubble; Earth observation satellites from companies like Planet Labs, Umbra, and HawkEye 360; GPS; miniature CubeSats for education and research; and military/defense satellites.

Loading next visibility...
Identifier
65906, 2025-224AA
Orbit
LEO
Country
Flag of USUS
Related business
Manufacturer
SpaceX/Seattle
Mission
Operational Commercial Communications
Bus & Motor
STARLINK V2MO, Unknown motor
Mass
575 kg wet, ~530 kg dry
Launch date (UTC)
2025-10-07 (5 months ago)
Launch vehicle
FALCON 9
Launch site
Air Force Eastern Test Range (AFETR)
Object type
Payload
Rocket body
Debris
Shape & HBR
Box + 2 Pan, 17.7 m
Radar Cross Section
36.964 m²

Expand to show TLE details & history
Last TLE update: 11 hours ago

TLE from 11 hours ago
0 STARLINK-35385
1 65906U 25224AA  26062.34075507  .00030709  00000-0  10444-2 0  9992
2 65906  53.1609  40.7330 0001164  91.0659 269.0475 15.30207956 23883
Epoch: 2026-03-03T08:10Z
TLE epoch observation values (Epoch: 2026-03-03T08:10:41.238Z)
Latitude
-0.00001°
Longitude
116.93995°
Altitude
476.104 km
Speed
7.629 km/s
True Right ascension
02h 42m 55s
True Declination
0° 00' 00"
Sunlit
Object was in daylight at epoch
Visualization orbit readout
Latitude
Unknown
Longitude
Unknown
Altitude
Unknown
Speed
Unknown
Apparent Right ascension
Unknown
Apparent Declination
Unknown
Sunlit
N/A
Visualization observer readout
Local Sidereal Time
23:07:12
Azimuth
Unknown
Elevation
Unknown
Doppler factor
Unknown
Orbital elements
Apogee altitude
476.245 km
Perigee altitude
474.65 km
Semi-major axis
6,853.585 km
Eccentricity
0.00012
Inclination
53.1609°
RAAN
40.733°
Arg. of periapsis
91.0659°
True anomaly
269.03416°
Mean anomaly
269.0475°
Eccentric anomaly
269.04083°
Mean motion
3.82531 °/min
Orbital period
94.11 mins
BSTAR
0.0010444
Loading maneuver chart data...
Computing Atmospheric mass density...
Loading historical data...
Loading historical data...
Loading historical data...
Loading historical data...
Loading historical data...
Loading historical data...
Loading historical data...

Documentation

Showing up to 5 results
|